| time (UTC) | temp F | wind direction | speed MPH | gust MPH | rain 1hr in | rain 24hr in | rain mn in | humidity % | barometer mb |
| 20260507163335 | 49 | 110 | 1.0 | 4.0 | 0.13 | 0.00 | 0.46 | 100 | 999.9 |
| 20260507162826 | 48 | 110 | 0.0 | 0.0 | 0.14 | 0.00 | 0.45 | 100 | 999.9 |
| 20260507162343 | 48 | 110 | 0.0 | 2.0 | 0.14 | 0.00 | 0.44 | 100 | 1000.0 |
| 20260507161922 | 48 | 110 | 0.0 | 4.0 | 0.14 | 0.00 | 0.43 | 100 | 1000.0 |
| 20260507161332 | 48 | 109 | 0.0 | 6.0 | 0.13 | 0.00 | 0.41 | 100 | 999.9 |
| 20260507160827 | 48 | 110 | 2.0 | 7.0 | 0.13 | 0.00 | 0.40 | 100 | 1000.9 |
| 20260507160402 | 48 | 141 | 0.0 | 7.0 | 0.12 | 0.00 | 0.39 | 100 | 1000.9 |
| 20260507155856 | 48 | 198 | 0.0 | 2.0 | 0.12 | 0.00 | 0.38 | 100 | 1000.9 |
| 20260507155346 | 48 | 198 | 0.0 | 7.0 | 0.11 | 0.00 | 0.37 | 100 | 1001.0 |
| 20260507154901 | 48 | 196 | 1.0 | 8.0 | 0.11 | 0.00 | 0.36 | 100 | 1001.0 |
| 20260507154354 | 48 | 253 | 3.0 | 8.0 | 0.11 | 0.00 | 0.35 | 100 | 1001.0 |
| 20260507153826 | 48 | 232 | 0.0 | 8.0 | 0.10 | 0.00 | 0.34 | 100 | 1001.0 |
| 20260507153337 | 49 | 232 | 3.0 | 8.0 | 0.09 | 0.00 | 0.33 | 100 | 1001.0 |
| 20260507152850 | 49 | 250 | 1.0 | 9.0 | 0.09 | 0.00 | 0.32 | 100 | 1001.0 |
| 20260507152322 | 49 | 251 | 3.0 | 11.0 | 0.08 | 0.00 | 0.30 | 100 | 1001.3 |
| 20260507151902 | 50 | 263 | 6.0 | 11.0 | 0.07 | 0.00 | 0.29 | 100 | 1001.3 |
| 20260507151356 | 50 | 292 | 5.0 | 11.0 | 0.06 | 0.00 | 0.28 | 100 | 1001.3 |
| 20260507150832 | 50 | 241 | 5.0 | 15.0 | 0.05 | 0.00 | 0.27 | 100 | 1001.4 |
| 20260507150344 | 50 | 240 | 6.0 | 15.0 | 0.06 | 0.00 | 0.27 | 100 | 1001.4 |
| 20260507145836 | 51 | 253 | 4.0 | 10.0 | 0.06 | 0.00 | 0.26 | 100 | 1001.4 |
| 20260507145329 | 51 | 189 | 3.0 | 9.0 | 0.06 | 0.00 | 0.26 | 100 | 1001.8 |
| 20260507144841 | 51 | 256 | 4.0 | 10.0 | 0.05 | 0.00 | 0.25 | 100 | 1001.8 |
| 20260507144338 | 51 | 223 | 4.0 | 13.0 | 0.05 | 0.00 | 0.25 | 100 | 1001.8 |
| 20260507143831 | 51 | 270 | 6.0 | 13.0 | 0.04 | 0.00 | 0.24 | 100 | 1001.6 |
| 20260507143328 | 51 | 219 | 6.0 | 11.0 | 0.04 | 0.00 | 0.24 | 100 | 1001.6 |
| 20260507142822 | 51 | 219 | 6.0 | 10.0 | 0.03 | 0.00 | 0.23 | 100 | 1001.6 |
| 20260507142333 | 51 | 294 | 8.0 | 14.0 | 0.02 | 0.00 | 0.22 | 100 | 1001.6 |
| 20260507141850 | 51 | 256 | 8.0 | 14.0 | 0.02 | 0.00 | 0.22 | 100 | 1001.6 |
| 20260507141323 | 51 | 212 | 6.0 | 15.0 | 0.02 | 0.00 | 0.22 | 100 | 1001.6 |
| 20260507140837 | 52 | 212 | 8.0 | 15.0 | 0.02 | 0.00 | 0.22 | 100 | 1001.6 |
| 20260507140330 | 52 | 172 | 6.0 | 11.0 | 0.01 | 0.00 | 0.21 | 100 | 1001.6 |
| 20260507135822 | 52 | 223 | 6.0 | 11.0 | 0.00 | 0.00 | 0.20 | 100 | 1001.6 |
| 20260507135336 | 52 | 271 | 6.0 | 17.0 | 0.00 | 0.00 | 0.20 | 100 | 1002.0 |
| 20260507134917 | 52 | 272 | 7.0 | 17.0 | 0.00 | 0.00 | 0.20 | 100 | 1002.0 |
| 20260507134351 | 52 | 217 | 7.0 | 17.0 | 0.00 | 0.00 | 0.20 | 100 | 1002.0 |
| 20260507133824 | 52 | 247 | 7.0 | 17.0 | 0.00 | 0.00 | 0.20 | 100 | 1002.1 |
| 20260507133337 | 52 | 275 | 4.0 | 15.0 | 0.00 | 0.00 | 0.20 | 100 | 1002.1 |
| 20260507132832 | 52 | 263 | 5.0 | 13.0 | 0.00 | 0.00 | 0.20 | 100 | 1002.1 |
| 20260507132345 | 52 | 258 | 7.0 | 14.0 | 0.00 | 0.00 | 0.20 | 100 | 1002.2 |
| 20260507131859 | 52 | 241 | 8.0 | 14.0 | 0.00 | 0.00 | 0.20 | 100 | 1002.2 |
| 20260507131352 | 52 | 272 | 7.0 | 14.0 | 0.00 | 0.00 | 0.20 | 100 | 1002.2 |
| 20260507130829 | 52 | 206 | 4.0 | 14.0 | 0.00 | 0.00 | 0.20 | 100 | 1002.5 |
| 20260507130338 | 52 | 200 | 4.0 | 10.0 | 0.00 | 0.00 | 0.20 | 100 | 1002.5 |
| 20260507125850 | 52 | 206 | 6.0 | 15.0 | 0.01 | 0.00 | 0.20 | 100 | 1002.5 |
| 20260507125322 | 52 | 265 | 4.0 | 15.0 | 0.01 | 0.00 | 0.20 | 100 | 1003.0 |
| 20260507124922 | 52 | 148 | 7.0 | 21.0 | 0.01 | 0.00 | 0.20 | 100 | 1003.0 |
| 20260507124334 | 52 | 243 | 7.0 | 21.0 | 0.00 | 0.00 | 0.20 | 100 | 1003.0 |
| 20260507123828 | 52 | 246 | 8.0 | 15.0 | 0.00 | 0.00 | 0.20 | 100 | 1003.3 |
| 20260507123322 | 52 | 265 | 8.0 | 17.0 | 0.00 | 0.00 | 0.20 | 100 | 1003.3 |
| 20260507122901 | 52 | 265 | 7.0 | 17.0 | 0.00 | 0.00 | 0.20 | 100 | 1003.3 |
| 20260507122331 | 52 | 256 | 7.0 | 15.0 | 0.00 | 0.00 | 0.20 | 100 | 1003.3 |
| 20260507121850 | 53 | 244 | 5.0 | 17.0 | 0.00 | 0.00 | 0.20 | 100 | 1003.3 |
| 20260507121323 | 53 | 219 | 6.0 | 17.0 | 0.00 | 0.00 | 0.20 | 100 | 1003.3 |
| 20260507120835 | 53 | 226 | 7.0 | 16.0 | 0.00 | 0.00 | 0.20 | 100 | 1003.1 |
| 20260507120330 | 53 | 171 | 7.0 | 16.0 | 0.00 | 0.00 | 0.20 | 100 | 1003.1 |
| 20260507115824 | 53 | 264 | 6.0 | 14.0 | 0.00 | 0.00 | 0.19 | 100 | 1003.1 |
| 20260507115340 | 53 | 270 | 9.0 | 14.0 | 0.00 | 0.00 | 0.19 | 100 | 1003.3 |
| 20260507114834 | 53 | 191 | 7.0 | 14.0 | 0.00 | 0.00 | 0.19 | 100 | 1003.3 |
| 20260507114419 | 53 | 226 | 8.0 | 0.0 | 0.00 | 0.00 | 0.19 | 100 | 1003.3 |
| 20260507022828 | 54 | 256 | 4.0 | 15.0 | 0.00 | 0.00 | 0.00 | 85 | 1011.3 |
| 20260507022342 | 54 | 265 | 6.0 | 15.0 | 0.00 | 0.00 | 0.00 | 85 | 1011.5 |
| 20260507021851 | 54 | 256 | 7.0 | 13.0 | 0.00 | 0.00 | 0.00 | 85 | 1011.5 |
| 20260507021326 | 54 | 240 | 7.0 | 13.0 | 0.00 | 0.00 | 0.00 | 84 | 1011.5 |
| 20260507020839 | 54 | 261 | 8.0 | 13.0 | 0.00 | 0.00 | 0.00 | 84 | 1011.8 |
| 20260507020333 | 54 | 274 | 6.0 | 13.0 | 0.00 | 0.00 | 0.00 | 84 | 1011.8 |
| 20260507015829 | 55 | 209 | 7.0 | 13.0 | 0.00 | 0.00 | 0.00 | 84 | 1011.8 |
| 20260507015342 | 55 | 248 | 8.0 | 13.0 | 0.00 | 0.00 | 0.00 | 84 | 1011.9 |
| 20260507014855 | 54 | 233 | 8.0 | 13.0 | 0.00 | 0.00 | 0.00 | 84 | 1011.9 |
| 20260507014331 | 54 | 206 | 8.0 | 14.0 | 0.00 | 0.00 | 0.00 | 84 | 1011.8 |
| 20260507013826 | 54 | 253 | 7.0 | 14.0 | 0.00 | 0.00 | 0.00 | 85 | 1012.0 |
| 20260507013339 | 54 | 222 | 7.0 | 11.0 | 0.00 | 0.00 | 0.00 | 85 | 1012.0 |
| 20260507012832 | 54 | 251 | 8.0 | 14.0 | 0.00 | 0.00 | 0.00 | 85 | 1012.0 |
| 20260507012324 | 54 | 267 | 8.0 | 16.0 | 0.00 | 0.00 | 0.00 | 84 | 1012.3 |
| 20260507011908 | 54 | 254 | 8.0 | 16.0 | 0.00 | 0.00 | 0.00 | 85 | 1012.3 |
| 20260507011341 | 54 | 248 | 6.0 | 17.0 | 0.00 | 0.00 | 0.00 | 85 | 1012.3 |
| 20260507010855 | 54 | 213 | 8.0 | 17.0 | 0.00 | 0.00 | 0.00 | 85 | 1012.4 |
| 20260507010329 | 54 | 241 | 9.0 | 17.0 | 0.00 | 0.00 | 0.00 | 84 | 1012.4 |
| 20260507005824 | 54 | 270 | 10.0 | 17.0 | 0.00 | 0.00 | 0.00 | 85 | 1012.4 |
| 20260507005338 | 54 | 258 | 8.0 | 15.0 | 0.00 | 0.00 | 0.00 | 85 | 1012.4 |
| 20260507004852 | 54 | 260 | 8.0 | 17.0 | 0.00 | 0.00 | 0.00 | 85 | 1012.4 |
| 20260507004348 | 54 | 220 | 8.0 | 17.0 | 0.00 | 0.00 | 0.00 | 85 | 1012.4 |
| 20260507003842 | 54 | 272 | 9.0 | 17.0 | 0.00 | 0.00 | 0.00 | 85 | 1012.4 |
| 20260507003353 | 54 | 258 | 8.0 | 17.0 | 0.00 | 0.00 | 0.00 | 85 | 1012.4 |
| 20260507002828 | 54 | 251 | 9.0 | 17.0 | 0.00 | 0.00 | 0.00 | 84 | 1012.4 |
| 20260507002341 | 54 | 267 | 10.0 | 18.0 | 0.00 | 0.00 | 0.00 | 84 | 1012.4 |
| 20260507001855 | 54 | 205 | 8.0 | 18.0 | 0.00 | 0.00 | 0.00 | 84 | 1012.4 |
| 20260507001332 | 54 | 248 | 9.0 | 20.0 | 0.00 | 0.00 | 0.00 | 84 | 1012.4 |
| 20260507000826 | 54 | 233 | 10.0 | 20.0 | 0.00 | 0.00 | 0.00 | 84 | 1012.4 |
| 20260507000339 | 54 | 260 | 9.0 | 18.0 | 0.00 | 0.00 | 0.00 | 84 | 1012.4 |
| 20260506235834 | 54 | 239 | 9.0 | 18.0 | 0.00 | 0.00 | 0.00 | 84 | 1012.4 |
| 20260506235348 | 54 | 244 | 7.0 | 18.0 | 0.00 | 0.00 | 0.00 | 84 | 1012.4 |
| 20260506234842 | 54 | 224 | 7.0 | 16.0 | 0.00 | 0.00 | 0.00 | 84 | 1012.4 |
| 20260506234328 | 54 | 263 | 8.0 | 17.0 | 0.00 | 0.00 | 0.00 | 84 | 1012.4 |
| 20260506233822 | 54 | 267 | 8.0 | 17.0 | 0.00 | 0.00 | 0.00 | 83 | 1012.3 |
| 20260506233334 | 54 | 210 | 10.0 | 16.0 | 0.00 | 0.00 | 0.00 | 83 | 1012.3 |
| 20260506232828 | 54 | 246 | 9.0 | 18.0 | 0.00 | 0.00 | 0.00 | 83 | 1012.3 |
| 20260506232323 | 54 | 202 | 9.0 | 18.0 | 0.00 | 0.00 | 0.00 | 83 | 1012.4 |
| 20260506231843 | 54 | 222 | 7.0 | 16.0 | 0.00 | 0.00 | 0.00 | 83 | 1012.4 |
| 20260506231338 | 54 | 263 | 8.0 | 16.0 | 0.00 | 0.00 | 0.00 | 82 | 1012.4 |
| 20260506230850 | 54 | 267 | 7.0 | 20.0 | 0.00 | 0.00 | 0.00 | 82 | 1012.4 |
| 20260506230321 | 54 | 233 | 10.0 | 20.0 | 0.00 | 0.00 | 0.00 | 82 | 1012.4 |
| 20260506225832 | 55 | 232 | 7.0 | 20.0 | 0.00 | 0.00 | 0.00 | 82 | 1012.4 |
| 20260506225342 | 55 | 251 | 10.0 | 18.0 | 0.00 | 0.00 | 0.00 | 82 | 1012.4 |
| 20260506224858 | 55 | 271 | 8.0 | 16.0 | 0.00 | 0.00 | 0.00 | 82 | 1012.4 |
| 20260506224334 | 55 | 196 | 9.0 | 22.0 | 0.00 | 0.00 | 0.00 | 81 | 1012.4 |
| 20260506223825 | 55 | 193 | 7.0 | 22.0 | 0.00 | 0.00 | 0.00 | 81 | 1012.8 |
| 20260506223339 | 55 | 261 | 13.0 | 22.0 | 0.00 | 0.00 | 0.00 | 81 | 1012.8 |
| 20260506222833 | 55 | 236 | 9.0 | 22.0 | 0.00 | 0.00 | 0.00 | 81 | 1012.8 |
| 20260506222330 | 56 | 256 | 10.0 | 23.0 | 0.00 | 0.00 | 0.00 | 81 | 1012.7 |
| 20260506221844 | 56 | 230 | 9.0 | 23.0 | 0.00 | 0.00 | 0.00 | 80 | 1012.7 |
| 20260506221340 | 56 | 203 | 9.0 | 18.0 | 0.00 | 0.00 | 0.00 | 80 | 1012.7 |
| 20260506220834 | 56 | 217 | 9.0 | 20.0 | 0.00 | 0.00 | 0.00 | 80 | 1012.6 |
| 20260506220328 | 56 | 244 | 10.0 | 22.0 | 0.00 | 0.00 | 0.00 | 80 | 1012.6 |
| 20260506215821 | 57 | 271 | 10.0 | 22.0 | 0.00 | 0.00 | 0.00 | 80 | 1012.6 |
| 20260506215335 | 57 | 263 | 11.0 | 20.0 | 0.00 | 0.00 | 0.00 | 79 | 1012.4 |
| 20260506214849 | 57 | 189 | 11.0 | 20.0 | 0.00 | 0.00 | 0.00 | 79 | 1012.4 |
| 20260506214342 | 57 | 246 | 10.0 | 20.0 | 0.00 | 0.00 | 0.00 | 79 | 1012.4 |
| 20260506213856 | 58 | 181 | 12.0 | 18.0 | 0.00 | 0.00 | 0.00 | 79 | 1012.4 |
| 20260506213328 | 58 | 234 | 6.0 | 21.0 | 0.00 | 0.00 | 0.00 | 79 | 1012.4 |
| 20260506212821 | 58 | 216 | 11.0 | 21.0 | 0.00 | 0.00 | 0.00 | 78 | 1012.4 |
| 20260506212402 | 58 | 254 | 8.0 | 14.0 | 0.00 | 0.00 | 0.00 | 78 | 1012.4 |
| 20260506211858 | 59 | 182 | 9.0 | 14.0 | 0.00 | 0.00 | 0.00 | 79 | 1012.4 |
| 20260506211349 | 59 | 237 | 8.0 | 14.0 | 0.00 | 0.00 | 0.00 | 79 | 1012.4 |
| 20260506210822 | 59 | 265 | 9.0 | 13.0 | 0.00 | 0.00 | 0.00 | 79 | 1012.1 |
| 20260506210337 | 59 | 258 | 7.0 | 15.0 | 0.00 | 0.00 | 0.00 | 79 | 1012.1 |
| 20260506205833 | 59 | 258 | 7.0 | 15.0 | 0.00 | 0.00 | 0.00 | 79 | 1012.1 |
| 20260506205326 | 59 | 206 | 7.0 | 17.0 | 0.00 | 0.00 | 0.00 | 78 | 1012.4 |
| 20260506204841 | 59 | 250 | 8.0 | 17.0 | 0.00 | 0.00 | 0.00 | 78 | 1012.4 |
| 20260506204337 | 59 | 232 | 7.0 | 17.0 | 0.00 | 0.00 | 0.00 | 78 | 1012.4 |
| 20260506203850 | 60 | 251 | 7.0 | 15.0 | 0.00 | 0.00 | 0.00 | 78 | 1012.4 |
| 20260506203346 | 60 | 227 | 7.0 | 15.0 | 0.00 | 0.00 | 0.00 | 78 | 1012.4 |